| time (UTC) | temp F | wind direction | speed MPH | gust MPH | rain 1hr in | rain 24hr in | rain mn in | humidity % | barometer mb |
| 20260502184032 | 66 | 183 | 3.0 | 13.0 | 0.00 | 0.00 | 0.00 | 32 | 1013.3 |
| 20260502183527 | 65 | 148 | 5.0 | 14.0 | 0.00 | 0.00 | 0.00 | 35 | 1013.3 |
| 20260502183037 | 65 | 249 | 6.0 | 14.0 | 0.00 | 0.00 | 0.00 | 33 | 1013.6 |
| 20260502182528 | 64 | 245 | 4.0 | 20.0 | 0.00 | 0.00 | 0.00 | 33 | 1013.6 |
| 20260502182026 | 65 | 223 | 7.0 | 20.0 | 0.00 | 0.00 | 0.00 | 31 | 1013.7 |
| 20260502181548 | 64 | 183 | 6.0 | 18.0 | 0.00 | 0.00 | 0.00 | 33 | 1014.0 |
| 20260502181028 | 63 | 177 | 5.0 | 17.0 | 0.00 | 0.00 | 0.00 | 34 | 1013.9 |
| 20260502180531 | 64 | 188 | 7.0 | 17.0 | 0.00 | 0.00 | 0.00 | 33 | 1014.1 |
| 20260502164027 | 59 | 167 | 8.0 | 16.0 | 0.00 | 0.00 | 0.00 | 34 | 1015.4 |
| 20260502163528 | 59 | 178 | 2.0 | 17.0 | 0.00 | 0.00 | 0.00 | 36 | 1015.3 |
| 20260502163042 | 58 | 303 | 8.0 | 17.0 | 0.00 | 0.00 | 0.00 | 35 | 1015.5 |
| 20260502162529 | 58 | 229 | 4.0 | 18.0 | 0.00 | 0.00 | 0.00 | 37 | 1015.6 |
| 20260502162025 | 58 | 186 | 5.0 | 18.0 | 0.00 | 0.00 | 0.00 | 37 | 1015.8 |
| 20260502161536 | 58 | 263 | 6.0 | 16.0 | 0.00 | 0.00 | 0.00 | 37 | 1015.8 |
| 20260502161027 | 58 | 158 | 7.0 | 16.0 | 0.00 | 0.00 | 0.00 | 36 | 1015.8 |
| 20260502160530 | 57 | 243 | 3.0 | 13.0 | 0.00 | 0.00 | 0.00 | 37 | 1016.0 |
| 20260502152028 | 54 | 190 | 4.0 | 13.0 | 0.00 | 0.00 | 0.00 | 41 | 1016.5 |
| 20260502151547 | 55 | 270 | 4.0 | 12.0 | 0.00 | 0.00 | 0.00 | 41 | 1016.7 |
| 20260502151027 | 54 | 192 | 3.0 | 12.0 | 0.00 | 0.00 | 0.00 | 44 | 1016.7 |
| 20260502150527 | 53 | 224 | 6.0 | 12.0 | 0.00 | 0.00 | 0.00 | 43 | 1016.8 |
| 20260502130529 | 45 | 221 | 3.0 | 8.0 | 0.00 | 0.00 | 0.00 | 52 | 1017.7 |
| 20260502123527 | 42 | 201 | 0.0 | 6.0 | 0.00 | 0.00 | 0.00 | 59 | 1017.8 |
| 20260502123045 | 41 | 274 | 1.0 | 4.0 | 0.00 | 0.00 | 0.00 | 59 | 1017.9 |
| 20260502122527 | 41 | 248 | 0.0 | 3.0 | 0.00 | 0.00 | 0.00 | 60 | 1017.8 |
| 20260502122030 | 40 | 202 | 0.0 | 3.0 | 0.00 | 0.00 | 0.00 | 60 | 1017.9 |
| 20260502121541 | 40 | 217 | 0.0 | 5.0 | 0.00 | 0.00 | 0.00 | 60 | 1017.9 |
| 20260502121028 | 40 | 0 | 1.0 | 5.0 | 0.00 | 0.00 | 0.00 | 60 | 1017.8 |
| 20260502120528 | 40 | 261 | 0.0 | 4.0 | 0.00 | 0.00 | 0.00 | 61 | 1017.9 |
| 20260502115527 | 40 | 224 | 1.0 | 8.0 | 0.00 | 0.00 | 0.00 | 60 | 1017.8 |
| 20260502115029 | 40 | 276 | 0.0 | 8.0 | 0.00 | 0.00 | 0.00 | 60 | 1017.9 |
| 20260502114537 | 39 | 244 | 3.0 | 8.0 | 0.00 | 0.00 | 0.00 | 60 | 1017.9 |
| 20260502114028 | 39 | 275 | 2.0 | 7.0 | 0.00 | 0.00 | 0.00 | 61 | 1017.9 |
| 20260502113527 | 39 | 290 | 2.0 | 7.0 | 0.00 | 0.00 | 0.00 | 61 | 1017.9 |
| 20260502113045 | 38 | 255 | 2.0 | 4.0 | 0.00 | 0.00 | 0.00 | 61 | 1017.9 |
| 20260502112529 | 38 | 262 | 1.0 | 4.0 | 0.00 | 0.00 | 0.00 | 62 | 1017.9 |
| 20260502112026 | 38 | 0 | 1.0 | 3.0 | 0.00 | 0.00 | 0.00 | 62 | 1017.9 |
| 20260502111548 | 38 | 207 | 0.0 | 3.0 | 0.00 | 0.00 | 0.00 | 62 | 1017.9 |
| 20260502111026 | 38 | 249 | 0.0 | 3.0 | 0.00 | 0.00 | 0.00 | 60 | 1017.9 |
| 20260502110527 | 38 | 248 | 1.0 | 3.0 | 0.00 | 0.00 | 0.00 | 60 | 1017.9 |
| 20260502110042 | 38 | 0 | 0.0 | 3.0 | 0.00 | 0.00 | 0.00 | 60 | 1017.8 |
| 20260502105527 | 38 | 0 | 0.0 | 3.0 | 0.00 | 0.00 | 0.00 | 60 | 1017.8 |
| 20260502105027 | 38 | 270 | 1.0 | 3.0 | 0.00 | 0.00 | 0.00 | 61 | 1017.8 |
| 20260502104538 | 37 | 0 | 0.0 | 2.0 | 0.00 | 0.00 | 0.00 | 62 | 1017.9 |
| 20260502104027 | 37 | 201 | 0.0 | 2.0 | 0.00 | 0.00 | 0.00 | 63 | 1017.8 |
| 20260502103527 | 37 | 0 | 0.0 | 2.0 | 0.00 | 0.00 | 0.00 | 62 | 1017.9 |
| 20260502103043 | 37 | 0 | 0.0 | 2.0 | 0.00 | 0.00 | 0.00 | 63 | 1018.0 |
| 20260502102527 | 37 | 0 | 0.0 | 1.0 | 0.00 | 0.00 | 0.00 | 63 | 1017.9 |
| 20260502102030 | 38 | 0 | 0.0 | 2.0 | 0.00 | 0.00 | 0.00 | 62 | 1017.9 |
| 20260502101546 | 38 | 0 | 0.0 | 2.0 | 0.00 | 0.00 | 0.00 | 62 | 1018.0 |
| 20260502101026 | 38 | 0 | 0.0 | 2.0 | 0.00 | 0.00 | 0.00 | 61 | 1017.9 |
| 20260502100526 | 38 | 229 | 0.0 | 2.0 | 0.00 | 0.00 | 0.00 | 61 | 1017.9 |
| 20260502091029 | 37 | 176 | 0.0 | 3.0 | 0.00 | 0.00 | 0.00 | 68 | 1017.9 |
| 20260502090527 | 37 | 190 | 1.0 | 2.0 | 0.00 | 0.00 | 0.00 | 66 | 1017.8 |
| 20260502071028 | 41 | 274 | 0.0 | 3.0 | 0.00 | 0.00 | 0.00 | 56 | 1018.1 |
| 20260502070528 | 41 | 0 | 1.0 | 3.0 | 0.00 | 0.00 | 0.00 | 56 | 1018.2 |
| 20260502070043 | 41 | 0 | 0.0 | 2.0 | 0.00 | 0.00 | 0.00 | 56 | 1018.2 |
| 20260502065527 | 42 | 0 | 0.0 | 3.0 | 0.00 | 0.00 | 0.00 | 55 | 1018.2 |
| 20260502065027 | 42 | 0 | 0.0 | 3.0 | 0.00 | 0.00 | 0.00 | 55 | 1018.3 |
| 20260502064542 | 42 | 0 | 1.0 | 4.0 | 0.00 | 0.00 | 0.00 | 54 | 1018.3 |
| 20260502064027 | 42 | 0 | 1.0 | 6.0 | 0.00 | 0.00 | 0.00 | 53 | 1018.3 |
| 20260502063526 | 42 | 300 | 2.0 | 6.0 | 0.00 | 0.00 | 0.00 | 53 | 1018.4 |
| 20260502063055 | 42 | 277 | 1.0 | 6.0 | 0.00 | 0.00 | 0.00 | 54 | 1018.4 |
| 20260502062527 | 42 | 300 | 2.0 | 7.0 | 0.00 | 0.00 | 0.00 | 54 | 1018.4 |
| 20260502062026 | 42 | 270 | 2.0 | 7.0 | 0.00 | 0.00 | 0.00 | 54 | 1018.4 |
| 20260502061542 | 42 | 304 | 2.0 | 5.0 | 0.00 | 0.00 | 0.00 | 55 | 1018.4 |
| 20260502061027 | 42 | 277 | 1.0 | 5.0 | 0.00 | 0.00 | 0.00 | 55 | 1018.3 |
| 20260502060527 | 42 | 277 | 1.0 | 5.0 | 0.00 | 0.00 | 0.00 | 55 | 1018.3 |
| 20260502060042 | 42 | 263 | 1.0 | 3.0 | 0.00 | 0.00 | 0.00 | 55 | 1018.2 |
| 20260502055527 | 42 | 0 | 0.0 | 3.0 | 0.00 | 0.00 | 0.00 | 55 | 1018.2 |
| 20260502055027 | 42 | 0 | 1.0 | 3.0 | 0.00 | 0.00 | 0.00 | 55 | 1018.3 |
| 20260502054545 | 42 | 0 | 1.0 | 3.0 | 0.00 | 0.00 | 0.00 | 54 | 1018.3 |
| 20260502054026 | 42 | 0 | 0.0 | 3.0 | 0.00 | 0.00 | 0.00 | 54 | 1018.3 |
| 20260502053526 | 42 | 298 | 0.0 | 4.0 | 0.00 | 0.00 | 0.00 | 54 | 1018.3 |
| 20260502053052 | 42 | 318 | 1.0 | 4.0 | 0.00 | 0.00 | 0.00 | 54 | 1018.4 |
| 20260502052526 | 43 | 304 | 1.0 | 4.0 | 0.00 | 0.00 | 0.00 | 54 | 1018.4 |
| 20260502052026 | 43 | 286 | 1.0 | 4.0 | 0.00 | 0.00 | 0.00 | 53 | 1018.4 |
| 20260502051537 | 43 | 282 | 1.0 | 4.0 | 0.00 | 0.00 | 0.00 | 53 | 1018.4 |
| 20260502051027 | 43 | 313 | 2.0 | 4.0 | 0.00 | 0.00 | 0.00 | 53 | 1018.4 |
| 20260502050530 | 43 | 305 | 1.0 | 4.0 | 0.00 | 0.00 | 0.00 | 53 | 1018.3 |
| 20260502050047 | 43 | 291 | 1.0 | 4.0 | 0.00 | 0.00 | 0.00 | 52 | 1018.3 |
| 20260502045527 | 43 | 319 | 1.0 | 4.0 | 0.00 | 0.00 | 0.00 | 51 | 1018.3 |
| 20260502045031 | 44 | 284 | 1.0 | 4.0 | 0.00 | 0.00 | 0.00 | 51 | 1018.3 |
| 20260502044541 | 44 | 0 | 1.0 | 4.0 | 0.00 | 0.00 | 0.00 | 51 | 1018.3 |
| 20260502044026 | 44 | 296 | 2.0 | 4.0 | 0.00 | 0.00 | 0.00 | 51 | 1018.3 |
| 20260502043529 | 44 | 0 | 1.0 | 4.0 | 0.00 | 0.00 | 0.00 | 50 | 1018.4 |
| 20260502043042 | 45 | 0 | 1.0 | 4.0 | 0.00 | 0.00 | 0.00 | 50 | 1018.4 |
| 20260502042526 | 45 | 306 | 2.0 | 4.0 | 0.00 | 0.00 | 0.00 | 49 | 1018.5 |
| 20260502042027 | 45 | 294 | 1.0 | 4.0 | 0.00 | 0.00 | 0.00 | 49 | 1018.5 |
| 20260502041539 | 45 | 273 | 1.0 | 4.0 | 0.00 | 0.00 | 0.00 | 49 | 1018.4 |
| 20260502041027 | 45 | 318 | 1.0 | 4.0 | 0.00 | 0.00 | 0.00 | 48 | 1018.4 |
| 20260502040527 | 45 | 277 | 1.0 | 4.0 | 0.00 | 0.00 | 0.00 | 48 | 1018.4 |
| 20260502040046 | 45 | 319 | 2.0 | 5.0 | 0.00 | 0.00 | 0.00 | 48 | 1018.4 |
| 20260502035527 | 45 | 319 | 2.0 | 5.0 | 0.00 | 0.00 | 0.00 | 48 | 1018.4 |
| 20260502035027 | 45 | 323 | 1.0 | 5.0 | 0.00 | 0.00 | 0.00 | 48 | 1018.4 |
| 20260502034541 | 45 | 319 | 1.0 | 4.0 | 0.00 | 0.00 | 0.00 | 47 | 1018.4 |
| 20260502034027 | 45 | 294 | 1.0 | 4.0 | 0.00 | 0.00 | 0.00 | 47 | 1018.5 |
| 20260502033526 | 46 | 289 | 1.0 | 4.0 | 0.00 | 0.00 | 0.00 | 47 | 1018.5 |
| 20260502033043 | 46 | 0 | 0.0 | 3.0 | 0.00 | 0.00 | 0.00 | 47 | 1018.6 |
| 20260502032529 | 46 | 289 | 1.0 | 3.0 | 0.00 | 0.00 | 0.00 | 47 | 1018.4 |
| 20260502032026 | 46 | 0 | 0.0 | 3.0 | 0.00 | 0.00 | 0.00 | 47 | 1018.4 |
| 20260502031540 | 46 | 280 | 1.0 | 3.0 | 0.00 | 0.00 | 0.00 | 47 | 1018.4 |
| 20260502031026 | 45 | 248 | 1.0 | 3.0 | 0.00 | 0.00 | 0.00 | 47 | 1018.4 |
| 20260502030527 | 45 | 275 | 1.0 | 3.0 | 0.00 | 0.00 | 0.00 | 48 | 1018.3 |
| 20260502030042 | 45 | 237 | 0.0 | 2.0 | 0.00 | 0.00 | 0.00 | 52 | 1018.3 |
| 20260502025527 | 45 | 0 | 0.0 | 2.0 | 0.00 | 0.00 | 0.00 | 50 | 1018.3 |
| 20260502025027 | 45 | 194 | 0.0 | 2.0 | 0.00 | 0.00 | 0.00 | 52 | 1018.3 |
| 20260502024537 | 46 | 0 | 0.0 | 2.0 | 0.00 | 0.00 | 0.00 | 52 | 1018.3 |
| 20260502024027 | 46 | 202 | 0.0 | 2.0 | 0.00 | 0.00 | 0.00 | 49 | 1018.2 |
| 20260502023527 | 46 | 0 | 0.0 | 2.0 | 0.00 | 0.00 | 0.00 | 44 | 1018.2 |
| 20260502023043 | 47 | 0 | 0.0 | 1.0 | 0.00 | 0.00 | 0.00 | 45 | 1018.3 |
| 20260502022526 | 47 | 0 | 0.0 | 1.0 | 0.00 | 0.00 | 0.00 | 43 | 1018.2 |
| 20260502022026 | 48 | 0 | 0.0 | 2.0 | 0.00 | 0.00 | 0.00 | 41 | 1018.2 |
| 20260502021540 | 48 | 0 | 0.0 | 2.0 | 0.00 | 0.00 | 0.00 | 40 | 1018.2 |
| 20260502021033 | 48 | 0 | 0.0 | 2.0 | 0.00 | 0.00 | 0.00 | 40 | 1018.2 |
| 20260502020526 | 49 | 267 | 1.0 | 2.0 | 0.00 | 0.00 | 0.00 | 40 | 1018.1 |
| 20260502020042 | 49 | 240 | 0.0 | 2.0 | 0.00 | 0.00 | 0.00 | 40 | 1018.1 |
| 20260502015526 | 49 | 0 | 0.0 | 2.0 | 0.00 | 0.00 | 0.00 | 41 | 1018.1 |
| 20260502015026 | 49 | 253 | 0.0 | 2.0 | 0.00 | 0.00 | 0.00 | 39 | 1018.1 |
| 20260502014538 | 49 | 0 | 0.0 | 2.0 | 0.00 | 0.00 | 0.00 | 37 | 1018.0 |
| 20260502014029 | 50 | 0 | 0.0 | 2.0 | 0.00 | 0.00 | 0.00 | 37 | 1017.9 |
| 20260502013526 | 50 | 0 | 0.0 | 2.0 | 0.00 | 0.00 | 0.00 | 35 | 1017.9 |
| 20260502013036 | 51 | 252 | 0.0 | 2.0 | 0.00 | 0.00 | 0.00 | 34 | 1017.9 |
| 20260502012526 | 51 | 298 | 0.0 | 2.0 | 0.00 | 0.00 | 0.00 | 33 | 1017.9 |
| 20260502012027 | 52 | 0 | 1.0 | 2.0 | 0.00 | 0.00 | 0.00 | 33 | 1017.8 |
| 20260502011540 | 52 | 307 | 0.0 | 3.0 | 0.00 | 0.00 | 0.00 | 33 | 1017.7 |
| 20260502011026 | 52 | 0 | 1.0 | 4.0 | 0.00 | 0.00 | 0.00 | 32 | 1017.8 |
| 20260502010526 | 52 | 283 | 1.0 | 4.0 | 0.00 | 0.00 | 0.00 | 32 | 1017.8 |
| 20260502010040 | 52 | 323 | 2.0 | 4.0 | 0.00 | 0.00 | 0.00 | 32 | 1017.7 |
| 20260502005527 | 53 | 303 | 2.0 | 3.0 | 0.00 | 0.00 | 0.00 | 31 | 1017.7 |
| 20260502005027 | 53 | 344 | 1.0 | 4.0 | 0.00 | 0.00 | 0.00 | 31 | 1017.7 |
| 20260502004543 | 53 | 311 | 1.0 | 7.0 | 0.00 | 0.00 | 0.00 | 31 | 1017.7 |
| 20260502004027 | 53 | 288 | 1.0 | 7.0 | 0.00 | 0.00 | 0.00 | 30 | 1017.5 |
| 20260502003526 | 53 | 262 | 2.0 | 7.0 | 0.00 | 0.00 | 0.00 | 31 | 1017.5 |
| 20260502003043 | 53 | 306 | 2.0 | 8.0 | 0.00 | 0.00 | 0.00 | 31 | 1017.5 |
| 20260502002526 | 53 | 299 | 3.0 | 8.0 | 0.00 | 0.00 | 0.00 | 31 | 1017.7 |
| 20260502002030 | 54 | 296 | 1.0 | 8.0 | 0.00 | 0.00 | 0.00 | 31 | 1017.7 |
| 20260502001542 | 54 | 0 | 2.0 | 8.0 | 0.00 | 0.00 | 0.00 | 30 | 1017.6 |
| 20260502001030 | 55 | 269 | 1.0 | 10.0 | 0.00 | 0.00 | 0.00 | 29 | 1017.5 |
| 20260502000526 | 54 | 30 | 4.0 | 10.0 | 0.00 | 0.00 | 0.00 | 30 | 1017.5 |
| 20260502000046 | 54 | 317 | 3.0 | 9.0 | 0.00 | 0.00 | 0.00 | 31 | 1017.5 |
| 20260501235526 | 54 | 253 | 3.0 | 8.0 | 0.00 | 0.00 | 0.00 | 29 | 1017.5 |
| 20260501235026 | 54 | 290 | 3.0 | 7.0 | 0.00 | 0.00 | 0.00 | 29 | 1017.7 |
| 20260501234540 | 54 | 303 | 3.0 | 8.0 | 0.00 | 0.00 | 0.00 | 28 | 1017.7 |
| 20260501234027 | 55 | 304 | 2.0 | 8.0 | 0.00 | 0.00 | 0.00 | 29 | 1017.7 |
| 20260501233527 | 55 | 341 | 3.0 | 8.0 | 0.00 | 0.00 | 0.00 | 29 | 1017.7 |
| 20260501233037 | 54 | 281 | 2.0 | 9.0 | 0.00 | 0.00 | 0.00 | 29 | 1017.7 |
| 20260501232529 | 55 | 299 | 4.0 | 9.0 | 0.00 | 0.00 | 0.00 | 28 | 1017.7 |
| 20260501232027 | 55 | 336 | 2.0 | 7.0 | 0.00 | 0.00 | 0.00 | 30 | 1017.8 |
| 20260501231554 | 54 | 55 | 2.0 | 7.0 | 0.00 | 0.00 | 0.00 | 30 | 1017.8 |
| 20260501231026 | 53 | 0 | 1.0 | 5.0 | 0.00 | 0.00 | 0.00 | 30 | 1017.7 |
| 20260501230528 | 54 | 18 | 2.0 | 5.0 | 0.00 | 0.00 | 0.00 | 29 | 1017.8 |
| 20260501230046 | 53 | 296 | 1.0 | 7.0 | 0.00 | 0.00 | 0.00 | 30 | 1017.7 |
| 20260501225530 | 53 | 41 | 3.0 | 8.0 | 0.00 | 0.00 | 0.00 | 30 | 1017.8 |
| 20260501225031 | 54 | 360 | 1.0 | 8.0 | 0.00 | 0.00 | 0.00 | 30 | 1017.8 |
| 20260501224547 | 54 | 319 | 3.0 | 7.0 | 0.00 | 0.00 | 0.00 | 30 | 1017.8 |
| 20260501224029 | 54 | 360 | 3.0 | 8.0 | 0.00 | 0.00 | 0.00 | 30 | 1017.9 |
| 20260501223529 | 53 | 348 | 2.0 | 10.0 | 0.00 | 0.00 | 0.00 | 30 | 1017.9 |
| 20260501223045 | 54 | 342 | 4.0 | 10.0 | 0.00 | 0.00 | 0.00 | 29 | 1017.9 |
| 20260501222529 | 55 | 321 | 3.0 | 14.0 | 0.00 | 0.00 | 0.00 | 28 | 1017.9 |
| 20260501222029 | 55 | 281 | 4.0 | 14.0 | 0.00 | 0.00 | 0.00 | 29 | 1017.9 |
| 20260501221600 | 56 | 21 | 6.0 | 14.0 | 0.00 | 0.00 | 0.00 | 27 | 1017.8 |
| 20260501221025 | 56 | 42 | 3.0 | 10.0 | 0.00 | 0.00 | 0.00 | 27 | 1017.9 |
| 20260501220527 | 55 | 28 | 3.0 | 10.0 | 0.00 | 0.00 | 0.00 | 28 | 1017.9 |
| 20260501220045 | 56 | 330 | 4.0 | 17.0 | 0.00 | 0.00 | 0.00 | 27 | 1017.9 |
| 20260501215529 | 55 | 246 | 6.0 | 17.0 | 0.00 | 0.00 | 0.00 | 29 | 1017.8 |
| 20260501215030 | 54 | 63 | 2.0 | 11.0 | 0.00 | 0.00 | 0.00 | 29 | 1017.9 |
| 20260501214541 | 54 | 263 | 2.0 | 11.0 | 0.00 | 0.00 | 0.00 | 29 | 1017.9 |
| 20260501214033 | 55 | 305 | 3.0 | 9.0 | 0.00 | 0.00 | 0.00 | 29 | 1018.0 |
| 20260501213529 | 54 | 20 | 4.0 | 9.0 | 0.00 | 0.00 | 0.00 | 30 | 1018.1 |
| 20260501213041 | 54 | 95 | 3.0 | 13.0 | 0.00 | 0.00 | 0.00 | 29 | 1018.0 |
| 20260501212528 | 53 | 92 | 1.0 | 13.0 | 0.00 | 0.00 | 0.00 | 30 | 1018.1 |
| 20260501212028 | 53 | 48 | 6.0 | 13.0 | 0.00 | 0.00 | 0.00 | 30 | 1018.1 |
| 20260501211549 | 54 | 86 | 3.0 | 7.0 | 0.00 | 0.00 | 0.00 | 29 | 1018.1 |
| 20260501211027 | 54 | 77 | 2.0 | 11.0 | 0.00 | 0.00 | 0.00 | 31 | 1018.1 |
| 20260501210528 | 53 | 78 | 2.0 | 11.0 | 0.00 | 0.00 | 0.00 | 31 | 1018.1 |
| 20260501210041 | 53 | 313 | 2.0 | 8.0 | 0.00 | 0.00 | 0.00 | 32 | 1018.2 |
| 20260501205529 | 52 | 352 | 2.0 | 11.0 | 0.00 | 0.00 | 0.00 | 31 | 1018.3 |
| 20260501205029 | 52 | 15 | 3.0 | 11.0 | 0.00 | 0.00 | 0.00 | 31 | 1018.3 |
| 20260501204542 | 53 | 300 | 5.0 | 11.0 | 0.00 | 0.00 | 0.00 | 31 | 1018.4 |
| 20260501204029 | 53 | 326 | 2.0 | 11.0 | 0.00 | 0.00 | 0.00 | 30 | 1018.4 |
| 20260501203528 | 53 | 322 | 4.0 | 12.0 | 0.00 | 0.00 | 0.00 | 31 | 1018.4 |
| 20260501203040 | 52 | 304 | 2.0 | 12.0 | 0.00 | 0.00 | 0.00 | 32 | 1018.6 |
| 20260501202529 | 51 | 311 | 3.0 | 10.0 | 0.00 | 0.00 | 0.00 | 33 | 1018.5 |
| 20260501202028 | 53 | 121 | 4.0 | 10.0 | 0.00 | 0.00 | 0.00 | 30 | 1018.5 |
| 20260501201541 | 52 | 46 | 2.0 | 12.0 | 0.00 | 0.00 | 0.00 | 34 | 1018.5 |
| 20260501201030 | 52 | 340 | 5.0 | 12.0 | 0.00 | 0.00 | 0.00 | 34 | 1018.7 |
| 20260501200528 | 53 | 298 | 5.0 | 11.0 | 0.00 | 0.00 | 0.00 | 35 | 1018.6 |
| 20260501200044 | 52 | 296 | 4.0 | 12.0 | 0.00 | 0.00 | 0.00 | 35 | 1018.6 |
| 20260501195528 | 52 | 319 | 4.0 | 12.0 | 0.00 | 0.00 | 0.00 | 35 | 1018.6 |
| 20260501195028 | 52 | 22 | 3.0 | 9.0 | 0.00 | 0.00 | 0.00 | 34 | 1018.6 |
| 20260501194543 | 53 | 61 | 2.0 | 11.0 | 0.00 | 0.00 | 0.00 | 31 | 1018.7 |
| 20260501194030 | 53 | 278 | 5.0 | 11.0 | 0.00 | 0.00 | 0.00 | 31 | 1018.6 |
| 20260501193528 | 52 | 297 | 3.0 | 10.0 | 0.00 | 0.00 | 0.00 | 34 | 1018.7 |
| 20260501193045 | 51 | 276 | 2.0 | 10.0 | 0.00 | 0.00 | 0.00 | 34 | 1018.8 |
| 20260501192529 | 51 | 328 | 5.0 | 10.0 | 0.00 | 0.00 | 0.00 | 35 | 1018.7 |
| 20260501192029 | 51 | 5 | 4.0 | 7.0 | 0.00 | 0.00 | 0.00 | 37 | 1018.8 |
| 20260501191539 | 51 | 314 | 3.0 | 9.0 | 0.00 | 0.00 | 0.00 | 37 | 1018.7 |
| 20260501191029 | 50 | 242 | 3.0 | 12.0 | 0.00 | 0.00 | 0.00 | 39 | 1018.8 |
| 20260501190529 | 50 | 312 | 5.0 | 12.0 | 0.00 | 0.00 | 0.00 | 37 | 1018.9 |
| 20260501190039 | 50 | 289 | 3.0 | 10.0 | 0.00 | 0.00 | 0.00 | 38 | 1018.9 |
| 20260501185528 | 51 | 290 | 5.0 | 10.0 | 0.00 | 0.00 | 0.00 | 37 | 1018.9 |
| 20260501185030 | 51 | 295 | 3.0 | 10.0 | 0.00 | 0.00 | 0.00 | 36 | 1018.9 |
| 20260501184543 | 52 | 313 | 4.0 | 10.0 | 0.00 | 0.00 | 0.00 | 36 | 1018.8 |